www.pogodaiklimat.ru

Погода и климат >> Архив погоды >> Пакистан >> Джелам


ПОГОДА в Джеламе

  • Прогноз погоды в Джеламе
  • Монитор погоды в Джеламе

АРХИВ ПОГОДЫ в Джеламе

Время (UTC), дата Ветер
(напр.,м/с)
 
Видим.   Явления Облачность Т
(С)
Тd
(С)
f
(%)
Тe
(С)
Тes
(С)
Комфортность P
(гПа)
Po
(гПа)
Тmin
(С)
Tmax
(С)
R
(мм)
R24
(мм)
S
(см)
12 18.06 ЮВ 3 4000 м мгла 3/0
[Ac As]
+35.5 +17.0 33 +38 +41 очень
душно
996.9 971.6 +37.5
15 18.06 ЮВ 1 4000 м мгла 8/0 1000 м
[Ac As]
+33.5 +18.3 41 +38 +38 очень
душно
997.9 972.4
18 18.06 В 1 4000 м дым 9/3 1200 м
[Sc As op]
+31.0 +20.6 54 +38 +38 очень
душно
999.0 973.4
21 18.06 В 1 4000 м дым 9/4 1200 м
[Sc As op]
+29.0 +20.8 61 +36 +36 очень
душно
998.7 972.9
00 19.06 штиль 0 4000 м дым 5/0
[Ac As]
+27.0 +19.3 63 +33 +33 очень
душно
1001.4 975.3
03 19.06 штиль 0 4000 м мгла 4/0
[Ac As]
+31.5 +19.4 49 +37 +45 очень
душно
1000.2 974.5 +26.7
06 19.06 В 1 4000 м мгла 1/1 1200 м
[Cu med, cong]
+36.0 +16.7 32 +39 +60 опасность
солнечного
удара
999.2 974.4
09 19.06 ЮЗ 2 4000 м мгла 3/3 1200 м
[Cu med, cong]
+39.5 +14.2 22 +40 +52 опасность
солнечного
удара
997.8 972.8
12 19.06 ЮВ 2 4000 м мгла 3/3 1200 м
[Cu med, cong]
+39.0 +15.7 25 +40 +43 очень
душно
995.8 970.9 +40.5
15 19.06 СВ 1 4000 м зарница {гроза} 8/5 900 м
[Cb cap As op]
+35.0 +17.3 35 +38 +38 очень
душно
996.1 970.8
18 19.06 СЗ 3 4000 м зарница {гроза} 10/5 900 м
[Cb cap As op]
+32.0 +11.8 29 +32 +32 жарко 997.8 972.2 0.0
21 19.06 СВ 1 4000 м дым 8/3 1200 м
[Sc Ac As]
+29.0 +14.2 40 +31 +31 жарко 997.7 971.9
00 20.06 штиль 0 4000 м дым 5/0
[Ac As]
+27.0 +17.0 54 +31 +31 душно 999.5 973.5
03 20.06 СВ 4 4000 м мгла 10/4 1200 м
[Sc As op]
+30.5 +14.1 37 +32 +33 жарко 1001.3 975.5 +26.1
06 20.06 СВ 1 4000 м дым {гроза} 10/4 1200 м
[Sc As op]
+26.0 +16.2 55 +29 +32 душно 1004.2 977.9 2
09 20.06 СЗ 3 4000 м мгла 5/0
[Ac As]
+33.5 +18.3 41 +38 +47 очень
душно
999.8 974.3
12 20.06 СВ 2 4000 м мгла 4/0
[Ac As]
+36.0 +18.7 36 +40 +43 очень
душно
997.5 972.2 +37.0
15 20.06 В 7 4000 м гроза без осадков 10/5 900 м
[Cb cap As op]
+33.0 +19.5 45 +39 +39 очень
душно
999.9 974.4
18 20.06 СЗ 3 4000 м зарница {гроза} 10/5 900 м
[Cb cap As op]
+24.5 +19.9 76 +30 +30 очень
душно
1000.4 974.1 19
21 20.06 СЗ 1 4000 м дым 10/4 1200 м
[Sc As op]
+25.5 +20.2 73 +31 +31 очень
душно
999.9 973.8
00 21.06 СЗ 1 4000 м дым 5/0
[Ac As]
+24.0 +20.2 79 +30 +30 очень
душно
1002.9 976.5
03 21.06 штиль 0 10 км 4/0
[Ac As]
+28.0 +15.9 48 +31 +39 душно 1003.2 977.1 +22.0
06 21.06 ЮЗ 1 10 км ясно +33.5 +19.2 43 +39 +64 опасность
солнечного
удара
1003.3 977.7
12 21.06 штиль 0 10 км ясно +38.0 +16.4 28 +40 +46 очень
душно
998.6 973.5 +39.1
15 21.06 штиль 0 10 км ясно +33.5 +21.9 51 +42 +42 опасность
перегрева
999.3 1000.0
18 21.06 штиль 0 10 км ясно +30.0 +21.1 59 +38 +38 очень
душно
999.7 974.0
21 21.06 штиль 0 10 км ясно +28.5 +17.5 51 +33 +33 очень
душно
1000.4 1000.0
00 22.06 штиль 0 10 км 3/0
[Ac trans]
+26.5 +19.6 66 +32 +32 очень
душно
1000.8 974.7
03 22.06 штиль 0 10 км ясно +31.5 +19.4 49 +37 +48 очень
душно
1001.4 975.7 +25.7
06 22.06 штиль 0 10 км ясно +36.5 +16.3 30 +39 +66 опасность
солнечного
удара
1000.6 975.3
09 22.06 Ю 1 10 км 3/3 1200 м
[Sc]
+40.0 +17.3 27 +43 +58 опасность
перегрева
999.0 1000.0
12 22.06 Ю 1 10 км ясно +40.0 +17.3 27 +43 +48 опасность
перегрева
996.2 971.4 +41.5
15 22.06 штиль 0 10 км ясно +35.0 +21.1 44 +42 +42 опасность
перегрева
996.6 1000.0
18 22.06 штиль 0 10 км ясно +31.5 +20.3 51 +38 +38 очень
душно
997.9 972.3
21 22.06 штиль 0 10 км ясно +30.0 +21.1 59 +38 +38 очень
душно
998.7 1000.0
00 23.06 штиль 0 10 км ясно +28.5 +21.9 67 +37 +37 очень
душно
999.6 973.7
03 23.06 штиль 0 10 км 4/0
[Ac trans]
+33.0 +20.4 48 +40 +48 очень
душно
1001.3 975.7 +27.9
06 23.06 СВ 3 10 км 5/5 1200 м
[Sc]
+37.0 +16.0 29 +39 +47 очень
душно
1001.2 976.0
09 23.06 СВ 1 10 км 4/4 1200 м
[Sc]
+33.5 +16.3 36 +36 +49 очень
душно
1000.9 1000.0
12 23.06 СЗ 1 10 км 9/5 1200 м
[Sc Ac As]
+35.5 +18.0 36 +39 +41 очень
душно
998.1 972.7 +38.0
15 23.06 штиль 0 10 км 9/5 1200 м
[Sc diur, vesp Ac As]
+32.0 +20.0 49 +38 +38 очень
душно
999.0 1000.0
18 23.06 штиль 0 10 км {дождь} 8/4 1200 м
[Sc Ac As]
+30.5 +20.9 57 +38 +38 очень
душно
1000.4 974.7
21 23.06 штиль 0 10 км 8/4 1200 м
[Sc Ac trans]
+29.0 +20.8 61 +36 +36 очень
душно
1000.3 974.2
00 24.06 штиль 0 10 км 10/5 1200 м
[Sc As op]
+28.5 +21.1 64 +36 +36 очень
душно
1001.9 975.9
03 24.06 СВ 2 10 км 5/5 1200 м
[Sc]
+37.0 +16.0 29 +39 +43 очень
душно
1001.2 976.0
06 24.06 ЮВ 1 10 км 9/5 1200 м
[Sc As op]
+32.0 +19.1 46 +37 +40 очень
душно
1004.2 978.4
09 24.06 ЮЗ 1 4000 м дым 9/5 1200 м
[Sc As op]
+33.0 +21.3 50 +41 +44 опасность
перегрева
1003.3 977.4
12 24.06 штиль 0 4000 м мгла 9/5 1200 м
[Sc Ac As]
+34.5 +20.5 44 +41 +42 опасность
перегрева
1001.1 975.6 +35.0
15 24.06 штиль 0 4000 м мгла 8/0
[As op]
+33.0 +19.5 45 +39 +39 очень
душно
1000.5 975.0
18 24.06 штиль 0 4000 м дым ясно +29.5 +20.5 58 +36 +36 очень
душно
1002.6 976.7
21 24.06 штиль 0 4000 м дым ясно +29.0 +19.1 55 +34 +34 очень
душно
1001.6 975.7
00 25.06 штиль 0 4000 м дым 4/0
[As op]
+28.0 +18.8 57 +33 +33 очень
душно
1001.3 975.3
03 25.06 штиль 0 4000 м дым ясно +30.0 +22.0 62 +39 +49 очень
душно
1003.1 977.2 +26.7
06 25.06 штиль 0 4000 м ясно +36.0 +17.7 34 +39 +67 опасность
солнечного
удара
977.0 981.8
09 25.06 штиль 0 4000 м мгла ясно +40.0 +17.3 27 +43 +67 опасность
перегрева
1000.2 975.3

 

Местоположение метеостанции Джелам (Пакистан): широта 32.93 долгота 73.72 высота над уровнем моря 234 м.

В архиве по умолчанию представлена погода в Джеламе за последнюю неделю. Архивные данные за месяц целиком и за предыдущие месяцы, начиная с января 2011 года, Вы можете получить, выбрав интересующий диапазон дат из раскрывающегося списка и нажав кнопку "Ввод!".


*Определитесь, кто Вы:
робот инопланетянин человек

Внимание! Время в таблицах - всемирное. Для получения местного времени необходимо прибавить поправку, которая равна 5 ч.

Смотрите также архив погоды в соседних городах и на ближайших метеорологических станциях:

Погода в Мангле (Пакистан) (18 км)
Погода в Сиалкот аэропорту (Пакистан) (53 км)
Погода в Гуджрате (Пакистан) (57 км)
Погода в Чаквале (Пакистан) (81 км)
Погода в Сиялкоте (Пакистан) (90 км)
Погода в Гуджранвале (Пакистан) (94 км)
Погода в Хафизабаде (Пакистан) (95 км)
Погода в Исламабаде (Пакистан) (96 км)
Погода в Равалакоте (Пакистан) (103 км)
Погода в Исламабад Сити (Пакистан) (105 км)

Пояснения к столбцам:

Ветер - указаны скорость ветра в м/с - средняя за 10 мин, порывы в срок и между сроками (в фигурных скобках) и направление, откуда дует ветер: С - северный, СВ - северо-восточный, В - восточный, ЮВ - юго-восточный, Ю - южный, ЮЗ - юго-западный, З - западный, СЗ - северо-западный.
Видимость - горизонтальная дальность видимости в метрах или километрах. При видимости от 1 до 10 км при отсутствии осадков обычно наблюдается дымка, при ухудшении видимости до 1 км и менее - туман. В сухую погоду видимость может ухудшаться дымом, пылью или мглою.
Явления - указаны атмосферные явления, наблюдавшиеся в срок или в последний час перед сроком; фигурными скобками обозначены явления, наблюдавшиеся между сроками (за 1-3 часа до срока); квадратными скобками обозначены град или гололедные отложения с указанием их диаметра в мм.
Облачность - указаны через наклонную черту общая и нижняя облачность в баллах и высота нижней границы облаков в метрах; квадратными скобками обозначены формы облаков: Ci - перистые, Cs - перисто-слоистые, Cc - перисто-кучевые, Ac - высококучевые, As - высокослоистые, Sc - слоисто-кучевые, Ns - слоисто-дождевые, Cu - кучевые, Cb - кучево-дождевые. Подробнее классификацию облаков см. в Атласе облаков (PDF).
T - Температура воздуха - температура, измеренная на высоте 2 м над землей.
Td - Температура точки росы - температура, при понижении до которой содержащийся в воздухе водяной пар достигнет насыщения.
f - Относительная влажность воздуха - влажноcть воздуха, измеренная на высоте 2 м над землей.
Te - Эффективная температура - температура, которую ощущает одетый по сезону человек в тени. Характеристика душности погоды. При расчете учитывается влияние влажности воздуха и скорости ветра на теплоощущения человека.
Tes - Эффективная температура на солнце - температура, которую ощущает человек, с поправкой на солнечный нагрев. Характеристика знойности погоды. Зависит от высоты солнца над горизонтом, облачности и скорости ветра. Ночью, в пасмурную погоду, а также при ветре 12 м/с и более поправка равна нулю.
P - Атмосферное давление - приведенное к уровню моря атмосферное давление.
Po - Атмосферное давление - измеренное на уровне метеостанции атмосферное давление.
Tmin - Минимальная температура - минимум температуры воздуха на высоте 2 м над землей.
Tmax - Максимальная температура - максимум температуры воздуха на высоте 2 м над землей.
R - Количество осадков - Количество выпавших осадков за период времени, мм. При наведении курсора мыши на число - период времени, за который выпало указанное количество осадков.
R24 - Количество осадков - Количество выпавших осадков за 24 часа, мм.
S - Снежный покров - Высота снежного покрова, см. При наведении курсора мыши на число - состояние снежного покрова и степень покрытия местности в баллах.